BIROS (41604 NORAD) Tracking and Keplerian Element Data

This shows tracking and keplerian element data for the satellite.

Feedback or suggestion? Click here.




ElementValue
Catalog41604
NameBIROS
Epoch Orbit11481
Epoch Day198.74077136
Epoch Year2018
RAAN261.161
Inclination97.4113
Eccentricity0.0014008
Argument of Perigee120.1137
Mean Anonmoly240.1489
Mean Motion15.2139848
Decay Rate4.25E-06
L11 41604U 16040F 18198.74077136 .00000425 00000-0 21989-4 0 9992
L22 41604 97.4113 261.1610 0014008 120.1137 240.1489 15.21398480114811

Live tracking and technical data element details for BIROS (NORAD 41604). BIROS can be tracked NOW for your location showing map with azimuth and elevation plus other details from your city location.

Track the satellite on the map from your city or location and see movement details for azimuth, elevation, latitude, longitude, range, height, and movement on the map or in text.







IsCatalogInMostPopularTable: catalog: 41604, numindb: 85
Update: records affected: 1



GetName: 41604 BIROS

Hit Count: updated at: Fri, 20 Jul 2018 20:37:35 GMT